CAPE
0 0 0 0 0 0 0 0 0 0 0 0 0 0 0 0 0 0 0 0 0 5 8 96 195 186 119 38 1 0 0 0 0 0 1 35 85 9 0 0 0 0 0 0
0 0 0 0 0 0 0 0 0 0 0 0 0 0 0 0 0 1 0 0 0 6 33 86 112 143 144 108 48 14 16 22 26 3 3 2 1 0 0 0 0 1 1 1
0 0 0 0 0 0 0 0 0 0 0 0 0 0 0 0 0 0 0 0 0 0 59 112 124 127 150 153 82 60 20 0 0 0 0 0 0 0 1 0 2 2 1 1
0 0 0 0 0 0 0 0 0 0 0 0 0 0 0 0 0 0 0 0 0 0 45 97 82 98 99 81 32 0 0 1 1 1 1 1 2 2 2 2 2 2 2 1
0 0 0 0 0 0 0 0 0 0 0 0 0 0 0 0 0 0 0 0 0 0 25 19 24 4 3 2 0 0 0 0 1 1 2 3 3 2 3 3 4 3 2 1
0 0 0 0 0 0 0 0 0 0 0 0 0 0 0 0 0 0 0 0 0 0 1 2 0 0 0 0 0 0 1 3 3 1 2 2 2 2 3 3 3 1 0 0
7 16 0 0 0 3 0 0 0 0 0 0 0 0 0 0 0 0 0 0 0 0 7 4 0 0 0 0 0 1 1 2 2 2 1 3 3 3 4 3 0 0 0 0
14 14 0 0 1 4 0 0 0 0 0 0 0 0 0 0 0 0 0 0 0 11 5 0 0 0 0 0 0 0 0 0 2 1 2 2 2 2 2 1 0 0 0 0
10 4 0 0 0 0 0 0 0 0 0 0 0 0 0 0 0 0 2 4 1 0 0 0 0 0 0 0 0 0 0 0 1 0 0 0 0 0 0 0 0 0 0 0
0 0 0 0 0 0 61 49 26 8 0 0 0 0 0 0 0 0 0 0 0 0 0 0 0 0 0 0 0 0 0 1 0 0 0 0 0 0 0 0 0 0 0 0
0 0 0 2 7 4 59 70 36 11 1 0 0 0 0 0 0 0 0 0 0 0 0 0 0 0 0 0 0 0 0 0 0 0 0 0 0 0 0 0 0 0 0 0
0 0 0 0 14 0 13 48 6 5 1 0 0 0 0 0 0 0 0 0 0 0 0 0 0 0 0 0 0 0 0 0 0 0 0 0 0 0 0 0 0 0 0 0
0 0 0 0 0 0 0 0 9 8 7 4 0 1 0 0 0 0 0 0 0 0 0 0 0 0 0 0 0 0 0 0 0 0 0 0 0 0 0 0 0 0 0 0
0 1 5 0 4 0 0 0 0 0 0 0 0 0 0 0 0 0 0 0 0 0 0 0 0 0 0 0 0 0 0 0 0 0 0 0 0 0 0 0 0 0 0 0
0 0 0 0 0 0 0 0 0 0 0 0 0 0 0 0 0 0 0 0 0 0 0 0 0 0 0 0 0 0 0 0 0 0 0 0 0 0 0 0 0 0 0 0
0 0 0 0 0 0 0 0 0 0 0 0 0 0 0 0 0 0 0 0 0 2 3 3 3 2 0 0 0 0 0 0 0 0 0 0 0 0 0 0 0 0 0 0
3 0 0 0 0 0 0 3 1 0 0 0 0 0 0 0 0 1 2 2 2 2 0 0 0 0 0 0 0 0 0 0 0 0 0 0 0 0 0 0 0 0 0 0
3 2 3 5 7 4 6 9 5 5 6 3 0 0 0 1 2 1 0 0 0 0 0 0 1 0 0 0 0 0 0 0 0 0 0 0 0 0 0 0 0 0 0 0
3 3 3 3 2 3 4 4 4 2 1 2 1 2 1 1 1 1 1 0 0 0 0 0 0 0 0 0 0 0 0 0 0 0 0 0 0 0 0 0 0 0 0 0
2 1 1 2 2 2 2 1 1 0 1 0 0 0 0 0 0 0 0 0 0 0 0 0 0 0 0 0 0 0 0 0 0 0 0 0 0 0 0 0 0 0 0 0
1 0 0 0 0 0 0 0 0 0 0 0 0 0 0 0 0 0 0 0 0 0 0 0 0 0 0 0 0 0 0 0 0 0 0 0 0 0 0 0 0 0 0 0
0 0 0 0 0 0 0 0 0 0 0 0 0 0 0 0 0 0 0 0 0 0 0 0 0 0 0 0 0 0 0 0 0 0 0 0 0 0 0 0 0 0 0 0
0 0 0 0 0 1 0 0 0 0 0 0 0 0 0 0 0 0 0 0 0 0 0 0 0 0 0 0 0 0 0 0 0 0 0 0 0 0 0 0 0 0 0 0
0 0 0 0 0 0 0 0 0 0 0 0 0 0 0 0 0 0 0 0 0 0 0 0 0 0 0 0 0 0 0 0 0 0 0 0 0 0 0 0 0 0 0 0
0 0 0 0 0 1 0 0 0 0 0 0 0 0 0 0 0 0 0 0 0 0 0 0 0 0 0 0 0 0 0 0 0 0 0 0 0 0 0 0 0 0 0 0
0 0 0 0 0 0 0 0 0 0 0 0 0 0 0 0 0 0 0 0 0 0 0 0 0 0 0 0 0 0 0 0 0 0 0 0 0 0 0 0 0 0 0 0
0 0 0 0 0 0 0 0 0 0 0 0 0 0 0 0 0 0 0 0 0 0 0 0 0 0 0 0 0 0 0 0 0 0 0 0 0 0 0 0 0 0 0 0
CIN
0 0 0 0 0 0 0 0 0 0 0 0 0 0 0 0 0 0 0 0 0 -141 -203 -246 -266 -326 -409 -464 -192 0 0 0 0 0 -23 -198 -144 -176 0 -60 0 0 0 0
0 0 0 0 0 0 0 0 0 0 0 0 0 0 0 0 0 -36 0 0 0 -179 -174 -186 -219 -251 -323 -389 -439 -451 -378 -331 -288 -253 -258 -140 -87 0 0 0 0 0 0 0
0 0 0 0 0 0 0 0 0 0 0 0 0 0 0 0 0 0 -44 0 0 0 -177 -187 -188 -240 -242 -370 -453 -410 -269 0 0 0 0 0 0 0 0 0 0 0 0 0
0 0 0 0 0 0 0 0 0 0 0 0 0 0 0 0 0 0 0 0 0 0 -184 -288 -397 -445 -518 -551 -543 0 0 0 0 0 0 0 0 0 0 0 0 0 0 0
0 0 0 0 0 0 0 0 0 0 0 0 0 0 0 0 0 0 0 0 0 0 -216 -432 -536 -240 -110 -112 0 0 0 0 0 0 0 0 0 0 0 0 0 0 0 0
0 0 0 0 0 0 0 0 0 0 0 0 0 0 0 0 0 0 0 0 0 0 -420 -364 0 0 0 0 0 0 0 0 0 0 0 0 0 0 0 0 0 0 0 0
-53 -9 0 0 0 -81 0 0 0 0 0 0 0 0 0 0 0 0 0 0 0 0 -318 -245 0 0 0 0 0 0 0 0 0 0 0 0 0 0 0 0 0 0 0 0
-35 -28 0 0 -22 -72 0 0 0 0 0 0 0 0 0 0 0 0 0 0 -110 -332 -375 0 0 0 0 0 0 0 0 0 0 0 0 0 0 0 0 0 0 0 0 0
-35 -32 0 0 0 0 0 -10 0 0 0 0 0 0 0 0 0 0 -271 -329 -246 0 0 0 0 0 0 0 0 0 0 0 0 0 0 0 0 0 0 0 0 0 0 0
0 0 0 0 0 0 -71 -77 -62 -28 0 0 0 0 0 0 0 0 0 0 0 -46 0 0 0 0 0 0 0 0 0 0 0 0 0 0 0 0 0 0 0 0 0 0
0 0 0 -14 -71 -20 -55 -81 -70 -132 -71 0 0 0 0 0 0 0 0 0 0 0 0 0 0 0 0 0 0 0 0 0 0 0 0 0 0 0 0 0 0 0 0 0
0 0 0 0 -49 -16 -56 -41 -68 -69 -23 0 0 0 0 0 0 0 0 0 0 0 0 0 0 0 0 0 0 0 0 0 0 0 0 0 0 0 0 0 0 0 0 0
0 0 0 0 0 0 0 0 -94 -97 -119 -105 -1 -38 0 0 0 0 0 0 0 0 0 0 0 0 0 0 0 0 0 0 0 0 0 0 0 0 0 0 0 0 0 0
0 0 -114 -6 -148 0 0 0 0 0 0 0 0 0 0 0 0 0 0 0 0 0 0 0 0 0 0 0 0 0 0 0 0 0 0 0 0 0 0 0 0 0 0 0
0 0 0 0 0 0 0 0 0 0 0 0 0 0 0 0 0 0 0 0 0 0 0 0 0 0 0 0 0 0 0 0 0 0 0 0 0 0 0 0 0 0 0 0
0 0 0 0 0 0 0 0 0 0 0 0 0 0 0 0 0 0 0 0 0 0 0 0 0 0 0 0 0 0 0 0 0 0 0 0 0 0 0 0 0 0 0 0
0 0 0 0 0 0 0 0 0 0 0 0 0 0 0 0 0 0 0 0 0 0 0 0 0 0 0 0 0 0 0 0 0 0 0 0 0 0 0 0 0 0 0 0
0 0 0 0 0 0 0 0 0 0 0 0 0 0 0 0 0 0 0 0 0 0 0 0 0 0 0 0 0 0 0 0 0 0 0 0 0 0 0 0 0 0 0 0
0 0 0 0 0 0 0 0 0 0 0 0 0 0 0 0 0 0 0 0 0 0 0 0 0 0 0 0 0 0 0 0 0 0 0 0 0 0 0 0 0 0 0 0
0 0 0 0 0 0 0 0 0 0 0 0 0 0 0 0 0 0 0 0 0 0 0 0 0 0 0 0 0 0 0 0 0 0 0 0 0 0 0 0 0 0 0 0
0 0 0 0 0 0 0 0 0 0 0 0 0 0 0 0 0 0 0 0 0 0 0 0 0 0 0 0 0 0 0 0 0 0 0 0 0 0 0 0 0 0 0 0
0 0 0 0 0 0 0 0 0 0 0 0 0 0 0 0 0 0 0 0 0 0 0 0 0 0 0 0 0 0 0 0 0 0 0 0 0 0 0 0 0 0 0 0
0 0 0 0 0 0 0 0 0 0 0 0 0 0 0 0 0 0 0 0 0 0 0 0 0 0 0 0 0 0 0 0 0 0 0 0 0 0 0 0 0 0 0 0
0 0 0 0 0 0 0 0 0 0 0 0 0 0 0 0 0 0 0 0 0 0 0 0 0 0 0 0 0 0 0 0 0 0 0 0 0 0 0 0 0 0 0 0
0 0 0 0 0 0 0 0 0 0 0 0 0 0 0 0 0 0 0 0 0 0 0 0 0 0 0 0 0 0 0 0 0 0 0 0 0 0 0 0 0 0 0 0
0 0 0 0 0 0 0 0 0 0 0 0 0 0 0 0 0 0 0 0 0 0 0 0 0 0 0 0 0 0 0 0 0 0 0 0 0 0 0 0 0 0 0 0
0 0 0 0 0 0 0 0 0 0 0 0 0 0 0 0 0 0 0 0 0 0 0 0 0 0 0 0 0 0 0 0 0 0 0 0 0 0 0 0 0 0 0 0
Wind_Speed
43 42 39 40 35 32 35 39 40 45 41 43 33 27 30 32 30 33 24 14 9 7 5 7 5 5 7 9 9 11 14 16 19 18 15 11 10 10 9 9 10 10 9 10
39 38 39 44 46 40 36 38 43 43 42 33 33 33 30 26 32 39 32 20 10 10 7 5 5 5 5 7 8 9 10 13 12 12 11 10 9 9 11 12 11 11 10 8
37 32 37 43 48 44 45 36 34 42 38 37 39 40 30 27 26 32 34 24 15 12 11 9 7 6 6 7 8 7 7 8 9 9 9 9 10 10 11 12 10 10 9 9
39 35 39 37 36 40 46 44 37 37 34 34 39 40 39 33 30 27 24 22 14 12 12 11 11 13 12 9 7 6 7 8 10 10 10 10 10 10 10 10 9 10 10 11
39 41 42 45 36 32 36 51 38 40 39 40 38 33 38 31 28 29 21 19 17 14 11 11 13 13 12 13 12 10 10 10 10 9 9 9 10 10 10 9 11 12 13 11
35 39 45 42 42 37 39 52 36 39 43 39 34 45 38 33 31 27 22 18 16 15 11 10 12 13 15 15 14 15 13 12 10 9 8 9 10 9 10 10 10 11 10 8
39 40 41 38 39 32 38 36 23 20 24 27 36 31 32 36 36 27 26 19 14 11 12 10 11 13 16 16 17 15 13 13 12 10 10 10 9 8 8 8 8 7 8 9
31 37 41 29 26 29 31 26 23 20 25 27 31 36 36 36 35 25 18 15 11 9 9 9 8 10 15 17 16 14 13 14 12 11 11 9 8 8 7 6 5 6 7 10
26 33 31 32 28 20 27 33 25 26 26 28 31 29 32 33 30 25 14 9 10 12 12 10 9 12 13 13 11 11 12 12 11 10 9 6 6 6 6 7 8 10 10 12
37 41 41 42 37 31 34 34 27 28 30 28 29 30 32 31 27 24 21 15 14 14 15 13 12 12 11 9 9 10 11 11 9 8 7 6 7 8 9 10 11 13 13 13
43 44 46 43 41 37 32 32 30 29 34 37 30 31 29 31 30 27 23 21 17 15 14 15 13 12 10 8 8 10 10 9 8 7 7 8 10 11 11 13 13 13 14 14
37 33 36 43 32 29 28 31 28 25 25 26 29 33 34 35 34 31 25 22 19 17 16 15 14 13 11 9 8 8 8 9 9 8 9 9 10 12 14 13 12 13 13 14
33 35 37 37 32 28 32 31 27 25 27 29 28 30 31 39 36 28 24 21 18 16 16 15 14 14 14 12 10 9 9 9 9 9 10 10 11 12 13 14 13 14 14 15
28 33 26 25 28 29 25 22 22 24 26 27 29 29 27 26 24 23 21 17 15 14 14 15 16 18 17 12 11 10 10 10 11 11 11 12 13 15 16 18 20 21 19 18
28 26 27 27 25 25 23 23 23 25 25 26 26 25 23 20 20 19 18 16 14 14 15 16 16 18 17 14 13 12 12 12 12 12 13 14 17 19 20 22 23 23 23 23
33 30 27 25 25 25 24 24 24 26 25 26 24 23 20 17 17 16 16 15 14 16 16 15 17 18 16 14 12 12 14 14 14 16 17 19 20 22 25 24 26 27 27 27
29 28 29 30 29 27 25 25 24 24 23 22 21 19 17 15 14 15 14 13 13 14 15 15 15 15 15 14 14 14 16 17 17 19 21 23 24 26 26 27 27 27 27 28
25 25 26 26 27 26 26 25 24 22 21 18 16 16 15 15 13 13 12 12 13 15 17 17 16 16 17 16 15 16 17 18 19 21 22 23 25 25 26 26 27 27 27 27
21 22 23 23 23 23 22 22 21 19 18 16 14 15 14 14 13 13 13 14 15 16 18 17 17 18 18 18 18 18 18 19 20 22 23 24 24 25 26 26 27 27 28 29
19 18 19 20 21 20 19 18 17 17 16 14 13 12 13 14 13 14 14 15 17 16 16 17 18 19 19 19 19 19 20 20 21 22 23 24 25 26 26 28 28 30 31 31
17 17 16 17 18 17 16 15 14 13 13 13 12 12 13 13 14 14 15 15 17 17 18 18 19 19 19 20 20 21 21 21 22 23 25 26 27 28 30 31 32 33 34 35
15 15 15 16 15 14 15 15 15 13 13 14 14 14 14 15 16 17 18 16 17 18 18 19 19 20 20 21 21 22 23 24 25 26 28 29 30 31 33 34 36 37 37 37
15 15 15 15 15 15 17 18 18 18 17 17 17 16 16 16 16 16 17 18 18 19 19 20 21 22 23 24 24 25 26 27 28 28 29 30 31 33 35 36 37 38 38 38
16 17 17 17 16 17 18 18 19 18 18 18 18 17 17 17 18 18 18 19 20 21 22 23 24 25 25 26 26 27 28 28 29 30 31 31 32 33 34 35 37 36 37 37
16 16 17 17 18 17 17 17 17 18 18 19 19 20 19 19 18 18 19 20 21 23 24 25 26 27 27 27 28 28 28 29 29 30 31 32 32 33 34 35 35 36 37 37
16 16 17 18 18 17 17 17 17 18 18 19 20 20 20 20 20 21 21 22 23 25 26 27 27 27 28 28 28 27 28 28 29 30 30 30 31 32 33 34 35 36 36 35
17 17 17 18 19 19 19 18 18 19 20 19 20 21 21 21 22 22 23 24 25 25 26 27 28 28 27 26 27 27 28 28 28 29 29 30 31 32 33 34 35 35 34 33
Wind_Direction
268 270 268 267 265 263 258 263 266 268 271 264 278 287 287 277 274 273 287 286 272 240 230 198 205 229 247 251 243 219 217 215 213 215 216 223 214 212 222 232 253 259 264 278
273 272 269 262 261 263 266 265 267 269 269 274 274 281 286 281 278 267 275 287 266 255 259 252 249 231 263 263 244 223 219 211 215 219 224 230 234 241 243 258 265 271 270 273
269 284 276 263 259 264 263 268 270 268 272 271 270 275 283 283 284 274 274 282 268 250 241 257 258 282 283 287 280 239 228 242 242 242 242 255 254 258 260 269 271 269 267 282
270 280 271 269 282 270 264 266 265 274 277 277 271 272 279 284 282 282 281 280 249 255 257 260 281 291 300 302 294 278 268 276 274 267 261 267 268 269 272 271 265 270 282 292
270 268 274 273 274 279 272 262 265 267 276 276 276 281 279 289 287 284 281 273 254 255 255 261 273 285 291 296 292 287 284 285 280 276 272 274 275 275 275 268 279 283 290 292
265 269 266 269 269 289 286 262 273 266 265 273 276 266 276 287 294 287 285 289 268 274 264 262 273 280 288 291 292 291 290 295 294 287 279 278 280 273 277 279 279 285 290 298
264 265 270 275 276 293 264 267 285 286 277 265 271 276 286 286 293 293 284 283 280 266 265 266 272 282 287 290 291 296 295 298 298 291 288 287 281 278 277 280 283 287 296 307
267 264 269 279 286 285 281 281 286 298 293 283 281 279 284 283 287 290 288 283 278 275 283 290 283 284 290 290 296 297 296 296 297 295 296 289 279 282 276 264 262 276 287 303
276 268 275 273 285 300 276 277 293 293 293 292 286 292 284 285 287 285 281 281 288 286 293 302 297 296 295 299 300 301 300 299 299 299 297 287 273 270 270 269 271 280 287 294
278 272 270 269 274 286 270 282 292 287 284 290 293 290 286 289 289 282 280 286 288 288 291 296 301 305 303 309 315 310 306 303 302 299 301 300 293 284 273 274 277 282 285 289
272 275 270 271 277 280 290 281 286 290 283 281 286 286 290 285 283 285 284 290 291 286 291 296 301 305 311 315 315 312 309 306 303 300 294 299 304 297 288 291 281 278 284 287
274 289 282 270 279 278 293 288 285 295 297 294 284 277 284 283 289 289 288 286 286 290 291 296 301 306 309 312 312 311 308 303 297 294 295 298 299 310 319 309 303 301 299 298
280 286 276 268 277 287 282 287 291 295 294 296 294 289 287 281 290 294 290 287 283 288 295 299 305 307 306 308 308 306 301 300 299 296 295 294 296 296 299 317 322 317 313 312
295 283 285 290 285 289 300 307 305 304 305 301 297 299 302 295 295 295 292 291 289 295 303 307 310 312 312 310 307 306 307 308 306 303 303 304 305 304 304 302 302 307 313 313
280 285 281 288 293 297 306 306 307 307 305 306 310 311 315 312 303 302 300 296 300 303 308 312 317 319 322 321 312 316 314 319 321 320 319 318 312 309 308 307 307 306 308 309
274 281 293 294 296 301 304 308 306 306 312 313 316 318 321 323 320 319 320 313 302 306 312 317 321 323 321 323 324 324 326 329 326 320 317 316 317 314 311 313 312 311 309 308
280 282 291 291 293 300 303 304 307 309 314 321 323 327 330 335 336 332 330 333 329 326 326 329 332 339 342 341 339 334 329 328 328 325 322 318 317 316 316 317 316 315 314 314
284 293 299 301 300 295 297 302 306 310 312 325 331 334 334 335 339 338 338 341 342 339 335 339 345 345 346 346 344 338 333 330 328 327 326 324 323 322 322 322 321 320 320 320
302 301 305 309 313 307 303 303 304 312 317 322 334 338 342 341 341 339 340 341 339 339 341 349 354 352 349 348 346 342 339 336 334 332 330 330 329 329 328 327 325 325 323 321
315 323 324 319 322 317 313 313 312 316 323 334 342 348 350 348 350 353 354 352 348 348 352 352 353 352 350 350 350 348 344 341 338 337 336 335 333 332 331 330 327 325 324 322
332 335 337 341 342 338 337 335 337 337 340 348 356 358 0 359 0 1 359 357 355 360 1 360 359 356 354 352 351 349 347 344 342 339 337 334 332 331 329 327 325 324 322 321
344 352 359 2 360 359 360 4 9 7 8 11 12 13 16 13 14 15 11 10 5 4 3 2 1 359 357 354 351 348 345 342 339 337 334 332 331 329 328 328 326 324 323 322
9 12 16 17 19 24 25 24 23 24 24 23 22 22 23 19 15 14 8 6 7 5 4 1 359 355 351 348 345 343 340 338 337 336 335 333 332 331 329 328 328 327 327 325
25 26 26 26 26 22 22 21 24 22 22 21 18 16 17 15 13 12 11 6 4 0 356 353 350 349 346 344 342 341 340 338 337 336 335 335 335 334 334 333 331 331 331 329
20 16 14 15 15 11 16 16 17 14 13 12 9 8 8 5 4 0 360 358 356 353 350 349 347 346 344 343 342 341 340 340 340 340 339 338 338 335 336 336 335 334 333 333
12 10 9 7 5 4 3 4 3 360 360 359 357 357 357 357 357 355 353 351 349 348 346 345 344 344 343 343 343 344 344 343 343 342 342 342 340 340 339 339 338 338 337 338
359 359 358 356 356 356 356 355 351 348 351 351 350 349 351 351 351 350 349 348 347 346 346 346 345 345 346 348 348 347 347 347 347 347 346 344 344 343 342 341 341 341 342 343